Fort Benton (79S)
Fort Benton, MT
Field Elevation: 2869
Lat: 47°50.42N  Long: 110°38.11W
CTAF/Unicom Freq: 122.8000
   
     For Weather-by-Phone, call 406-622-5976
Weather Advisories
10/30/2014 18:54 Z
Altimeter 30.27" Hg
Wind 040° @ 7 KT
Gusts --
Visibility 10 SM
Temperature 12° C (54° F)
Dewpoint 2° C (36° F)
Relative Humidity 53%
Density Altitude --
Condensation Altitude 7,600 feet
  Wind and Runways
Indicated Runway = 5
History
 
 
More Info
All DigiWx sites map
NOAA Forecast
 
Airport IQ 5010
(6S5) Ravalli County
(S71) Edgar Obie
 
about DigiWx
 
FAA Disclaimer: The data displayed is for advisory purposes only and is not to be used for flight planning or operations. For official data, please call 406-622-5976 to hear the current automated AWOS voice message.
  METAR 79S 301854Z AUTO 04007KT 10SM 12/02 A3027